weather.gov     
National Weather Service

Regional Weather Roundup
NWS Homepage
This page is being discontinued on March 12, 2014.
The same data is available at this site. Please update your bookmarks.
Thank you, and we apologize for the inconvenience.
Please send an email to SR-SRH.Webmaster@noaa.gov with any concerns.


Current Version
Previous Version:    01  02  03  04  05  06  07  08  09  10  11  12  13  14  15  16  17  18  19  20  21  22  23  24  25  26  27  28  29  30  
   31  32  33  34  35  36  37  38  39  40  41  42  43  44  45  46  47  48  49  50  51  52  53  
[Printable]
514
ASUS41 KGYX 180310
RWRGYX
WEATHER ROUNDUP FOR MAINE AND NEW HAMPSHIRE
NATIONAL WEATHER SERVICE GRAY ME
1100 PM EDT THU APR 17 2014

MEZ002-005-006-010-012-015-018-020-021-024-026-027-029-180400-
MAINE

CITY           SKY/WX    TMP DP  RH WIND       PRES   REMARKS
PORTLAND       PTCLDY    31  22  69 CALM      30.72F
SANFORD        PTCLDY    23 -24  11 CALM      30.70F
BAR HARBOR     PTCLDY    28  27  93 N3        30.73F
WISCASSET      PTCLDY    27  22  81 CALM      30.73F
ROCKLAND       PTCLDY    28  25  86 CALM      30.72F
FRYEBURG       CLEAR     27  20  75 CALM      30.70F
LEWISTONAUBURN PTCLDY    28  19  69 CALM      30.71F
AUGUSTA        CLEAR     30  21  69 CALM      30.72F
WATERVILLE     CLEAR     30  21  69 SW3       30.68F
BANGOR         PTCLDY    27  21  78 CALM      30.73F
GREENVILLE       N/A     29  12  49 SE5       30.61F
MILLINOCKET    CLEAR     28  20  71 CALM      30.71F
HOULTON        CLEAR     26  21  81 CALM      30.70F
PRESQUE ISLE   CLEAR     27  16  63 CALM      30.70F
FRENCHVILLE    PTCLDY    30  13  49 SE7       30.65F
CARIBOU        CLEAR     31  17  56 CALM      30.67F
$$

NHZ002-005-008-009-011-012-014-180400-
NEW HAMPSHIRE

CITY           SKY/WX    TMP DP  RH WIND       PRES   REMARKS
PORTSMOUTH     PTCLDY    31  23  73 N2        30.70F
ROCHESTER      PTCLDY    29  22  75 CALM      30.70F
NASHUA         PTCLDY    31  24  75 CALM      30.71F
MANCHESTER     MOCLDY    32  23  69 CALM      30.69F
CONCORD        PTCLDY    26  19  74 CALM      30.70F
LACONIA        CLEAR     28  19  69 CALM      30.68F
PLYMOUTH         N/A     30  20  66 E3        30.69S
BERLIN         FAIR      32  18  56 SE8       30.62S
WHITEFIELD     CLEAR     36  15  42 S8        30.59F
JAFFREY        CLEAR     29  21  72 CALM      30.65F
LEBANON        CLEAR     32  16  51 SE3       30.65F
MT WASHINGTON  NOT AVBL
$$

VTZ005-007-008-180400-
VERMONT

CITY           SKY/WX    TMP DP  RH WIND       PRES   REMARKS
ST JOHNSBURY     N/A     35  16  45 MISG      30.61F
MONTPELIER     CLEAR     33  17  51 S9        30.64S
BURLINGTON     CLEAR     39  17  41 S7        30.57S
$$

MAZ007-012-024-CTZ003-RIZ002-NYZ038-NYZ072-180400-
SOUTHERN NEW ENGLAND AND NY

CITY           SKY/WX    TMP DP  RH WIND       PRES   REMARKS
BOSTON         PTCLDY    34  26  72 NE7       30.70F
WORCESTER      CLEAR     30  22  72 E6        30.64F
NANTUCKET      PTCLDY    37  26  64 E10       30.64F
PROVIDENCE     PTCLDY    33  24  69 NE10      30.68F
HARTFORD       PTCLDY    35  24  64 NE7       30.65F
ALBANY         PTCLDY    42  21  43 SE8       30.60S
NEW YORK CITY  PTCLDY    40  28  62 E9        30.61F
$$

ANZ081-ANZ082-ANZ150-NHZ014-MEZ023>029-180400-
COASTAL MARINE OBSERVATIONS

STATION/POSITION TIME  TEMP    WIND        PRES    WAVE
                       AIR SEA DIR/SP/G            HT/PER
                 (UTC) (F)     (DEG/KT/KT) (MB)    (FT/S)
MOUNT DESERT ROC 0300   38                 1039.8F
MATINICUS ROCK   0200   37      90/ 12/ 14 1040.8F
PORTLAND WX BUOY 0300   36 40  110/  4/  6 1040.3F   3/ 7
WELLS            0300   30 39  350/  2/  2 1039.6F
ISLE OF SHOALS   0200   36      70/  8/  9 1040.0F
JEFFREYS LEDGE   0300      41                N/A     5/ 7
CASHES LEDGE BUO 0300   38 40   90/ 12/ 14 1040.0F   5/ 7
$$

.............KEY..............
   WCI - WIND CHILL
   TC  - TEMPERATURE IN CELSIUS
   VSB - VISIBILITY IN MILES
   HX  - HEAT INDEX
   FAIR- INDICATES FEW OR NO CLOUDS BELOW 12,000 FT, WITH NO
         SIGNIFICANT WEATHER AND/OR OBSTRUCTIONS TO VISIBILITY.






U.S. Dept. of Commerce
NOAA National Weather Service
1325 East West Highway
Silver Spring, MD 20910
E-mail: w-nws.webmaster@noaa.gov
Page last modified: May 16, 2007
NATIONAL WEATHER SERVICE: for Safety, for Work, for Fun - FOR LIFE